Flag for Venezuela Weather past 2 weeks in Caracas, Venezuela

Now
79 °F

Passing clouds.


Feels Like: 81 °F
Forecast: 65 / 74 °F
Wind: No wind

Location: Caracas / Maiquetia Aerop. Intl. Simon Bolivar

Current Time: Sep 2, 2014 at 2:55:39 AM

Latest Report: Sep 2, 2014 at 2:30 AM


Visibility: N/A

Pressure: 29.83 "Hg

Humidity: 74%

Dew point: 70 °F

Location of CaracasLocation

Historic Weather in Caracas — Graph

°F

Caracas temperature yesterday

Maximum temperature yesterday: 90 °F (at 10:30 AM)
Minimum temperature yesterday: 75 °F (at 4:30 AM)
Average temperature yesterday: 82 °F

Past Weeks' High & Low Weather Summary

 TemperatureHumidityPressure
High93 °F (Aug 26, 12:30 PM)89% (Aug 19, 3:30 AM)29.98 "Hg (Aug 19, 3:30 AM)
Low75 °F (Aug 28, 2:30 AM)49% (Aug 23, 4:30 PM)29.71 "Hg (Aug 25, 4:30 PM)
Average83 °F75%29.84 "Hg
* Reported Aug 18 1:30 AM — Sep 2 1:30 AM, Caracas, Weather by CustomWeather, © 2014

Note: Actual official high and low records may vary slightly from our data, if they occured in-between our weather recording intervals... More about our weather records

Advertising

Caracas weather history for previous 24 hours

 ConditionsComfort  
Time TempWeatherWind HumidityBarometerVisibility
1:30 AM
Sep 2
79 °FPassing clouds.No wind84%29.83 "HgN/A
12:30 AM81 °FPassing clouds.No wind79%29.83 "HgN/A
11:30 PM
Sep 1
81 °FPassing clouds.No wind84%29.83 "HgN/A
10:30 PM81 °FPassing clouds.No wind84%29.83 "HgN/A
9:30 PM81 °FPassing clouds.2 mph84%29.83 "HgN/A
8:30 PM81 °FPassing clouds.1 mph84%29.83 "HgN/A
7:30 PM82 °FPassing clouds.2 mph84%29.80 "HgN/A
6:30 PM84 °FPassing clouds.7 mph74%29.80 "HgN/A
5:30 PM84 °FScattered clouds.3 mph79%29.80 "HgN/A
4:30 PM86 °FPassing clouds.5 mph75%29.77 "HgN/A
3:30 PM90 °FScattered clouds.6 mph71%29.80 "HgN/A
2:30 PM90 °FScattered clouds.5 mph67%29.83 "HgN/A
1:30 PM90 °FScattered clouds.3 mph71%29.83 "HgN/A
12:30 PM90 °FScattered clouds.5 mph67%29.86 "HgN/A
11:30 AM88 °FScattered clouds.5 mph70%29.86 "HgN/A
10:30 AM90 °FPassing clouds.3 mph63%29.86 "HgN/A
9:30 AM86 °FPassing clouds.No wind70%29.89 "HgN/A
8:30 AM84 °FPassing clouds.No wind79%29.86 "HgN/A
7:30 AM81 °FScattered clouds.No wind89%29.86 "HgN/A
6:30 AM75 °FPassing clouds.No wind69%29.86 "HgN/A
5:30 AM75 °FPassing clouds.2 mph69%29.86 "HgN/A
4:30 AM75 °FPassing clouds.No wind74%29.86 "HgN/A
3:30 AM77 °FPassing clouds.No wind69%29.86 "HgN/A
2:30 AM77 °FPassing clouds.3 mph74%29.86 "HgN/A
Weather by CustomWeather, © 2014

See weather overviewHow to use our weather pages